Вернуться в каталог

FENGYUN 1C DEB

АктивенSSO
NORAD 30849·DEBRIS·🇨🇳 China

Запущен May 10, 1999 с Taiyuan Satellite Launch Center

Loading…

Ближайшие Пролёты (ближайшие 24 часа)

TLE

СвежийSource: Space-Track

Эпоха: Sep 12, 2026, 16:36 UTC

1 30849U 99025AWK 26255.69175648  .00001456  00000-0  69628-3 0  9995
2 30849  99.0294 326.2673 0046759 304.4107 207.8494 14.20175676  2531

Отслеживайте FENGYUN 1C DEB в реальном времени с AllMySat

Download on the App Store